Location: Unspecified
(35.7250°N, 0.0000°E)
Time: 17:55:40
(UTC+00:00)

Explorer 7 - Pass Details

Date: 26 June 2019
Orbit: 485 x 680 km, 50.3° (Epoch: 15 July)

Event Time Altitude Azimuth Distance (km) Brightness Sun altitude
Rises 07:17:26 0° 248° (WSW) 2,659 9.8 28.0°
Reaches altitude 10° 07:19:41 10° 256° (WSW) 1,802 9.0 28.5°
Maximum altitude 07:23:35 41° 328° (NNW) 827 7.8 29.3°
Drops below altitude 10° 07:27:45 10° 39° (NE) 1,926 10.4 30.1°
Sets 07:30:13 0° 46° (NE) 2,868 11.2 30.6°
